Location: Unspecified
(0.0000°N, 0.0000°E)
Time: 21:07:32
(UTC+00:00)

EQUISAT - All Passes

Search period start: 18 October 2019 00:00
Search period end: 28 October 2019 00:00
Orbit: 371 x 379 km, 51.6° (Epoch: 17 October)

Date Brightness Start Highest point End Pass type
(mag) Time Alt. Az. Time Alt. Az. Time Alt. Az.
18 Oct - 03:50:28 10° SSW 03:53:27 46° SE 03:56:26 10° NE visible
18 Oct - 15:20:10 10° N 15:22:38 22° NE 15:25:07 10° ESE daylight
19 Oct - 02:50:32 10° SSE 02:51:50 12° SE 02:53:08 10° E night (unlit)
19 Oct - 04:25:21 10° W 04:27:27 17° NW 04:29:34 10° N visible
19 Oct - 15:53:50 10° WNW 15:56:38 32° SW 15:59:26 10° SSE daylight
20 Oct - 03:22:46 10° SW 03:25:50 73° WNW 03:28:55 10° NNE night (unlit)
20 Oct - 14:52:02 10° NNW 14:55:00 48° NE 14:57:59 10° SE daylight
21 Oct - 02:21:39 10° S 02:24:11 23° SE 02:26:44 10° ENE night (unlit)
21 Oct - 13:51:58 10° NNE 13:53:19 12° NE 13:54:41 10° E daylight
21 Oct - 15:26:54 10° W 15:28:56 16° SW 15:30:58 10° SSW daylight
22 Oct - 02:55:19 10° WSW 02:58:06 31° NW 03:00:54 10° N night (unlit)
22 Oct - 14:24:11 10° NW 14:27:14 70° SW 14:30:17 10° SSE daylight
23 Oct - 01:53:24 10° SSW 01:56:24 50° SE 01:59:24 10° NE night (unlit)
23 Oct - 13:22:58 10° N 13:25:31 24° NE 13:28:04 10° ESE daylight
24 Oct - 00:53:11 10° SSE 00:54:39 13° SE 00:56:07 10° E night (unlit)
24 Oct - 02:28:17 10° W 02:30:16 16° NW 02:32:15 10° NNW night (unlit)
24 Oct - 13:56:36 10° WNW 13:59:21 30° SW 14:02:08 10° S daylight
25 Oct - 01:25:26 10° SW 01:28:30 68° NW 01:31:33 10° NNE night (unlit)
25 Oct - 12:54:35 10° NNW 12:57:35 51° NE 13:00:35 10° SE daylight
26 Oct - 00:24:07 10° S 00:26:42 24° SE 00:29:17 10° ENE night (unlit)
26 Oct - 11:54:15 10° NNE 11:55:45 13° NE 11:57:16 10° E daylight
26 Oct - 13:29:25 10° W 13:31:22 16° SW 13:33:19 10° SSW daylight
27 Oct - 00:57:43 10° WSW 01:00:28 30° NW 01:03:12 10° N night (unlit)
27 Oct - 12:26:29 10° NW 12:29:31 66° SW 12:32:34 10° SSE daylight
